Time,TemperatureF,DewpointF,PressureIn,WindDirection,WindDirectionDegrees,WindSpeedMPH,WindSpeedGustMPH,Humidity,HourlyPrecipIn,Conditions,Clouds,dailyrainin,SoftwareType,DateUTC
2013-07-31 00:00:00,77.2,75.7,30.11,WSW,248,0.0,0.0,95,0.00,,---,0.00,VWS V14.01,2013-07-31 04:00:00,
2013-07-31 00:30:00,77.2,76.0,30.11,WSW,248,0.0,0.0,96,0.00,,---,0.00,VWS V14.01,2013-07-31 04:30:00,
2013-07-31 01:00:00,76.8,75.6,30.10,WSW,248,0.0,0.0,96,0.00,,---,0.00,VWS V14.01,2013-07-31 05:00:00,
2013-07-31 01:30:00,76.4,75.2,30.10,WSW,248,0.0,0.0,96,0.00,,---,0.00,VWS V14.01,2013-07-31 05:30:00,
2013-07-31 02:00:00,76.5,75.3,30.09,WSW,248,0.0,0.0,96,0.00,,---,0.00,VWS V14.01,2013-07-31 06:00:00,
2013-07-31 02:30:00,76.4,75.2,30.08,WSW,248,0.0,0.0,96,0.00,,---,0.00,VWS V14.01,2013-07-31 06:30:00,
2013-07-31 03:00:00,76.3,75.1,30.08,WSW,248,0.0,0.0,96,0.00,,---,0.00,VWS V14.01,2013-07-31 07:00:00,
2013-07-31 03:30:00,76.1,74.9,30.07,WSW,248,0.0,0.0,96,0.00,,---,0.00,VWS V14.01,2013-07-31 07:30:00,
2013-07-31 04:00:00,75.6,74.7,30.07,WSW,248,0.0,0.0,97,0.00,,---,0.00,VWS V14.01,2013-07-31 08:00:00,
2013-07-31 04:30:00,75.7,74.8,30.07,WSW,248,0.0,0.0,97,0.00,,---,0.00,VWS V14.01,2013-07-31 08:30:00,
2013-07-31 05:00:00,75.5,74.6,30.07,WSW,248,0.0,0.0,97,0.00,,---,0.00,VWS V14.01,2013-07-31 09:00:00,
2013-07-31 05:30:00,75.4,74.5,30.08,WSW,248,0.0,0.0,97,0.00,,---,0.00,VWS V14.01,2013-07-31 09:30:00,
2013-07-31 06:00:00,75.1,74.2,30.08,WSW,248,0.0,0.0,97,0.00,,---,0.00,VWS V14.01,2013-07-31 10:00:00,
2013-07-31 06:30:00,74.8,73.9,30.09,WSW,248,0.0,0.0,97,0.00,,---,0.00,VWS V14.01,2013-07-31 10:30:00,
2013-07-31 07:00:00,74.5,73.6,30.09,WSW,248,0.0,0.0,97,0.00,,---,0.00,VWS V14.01,2013-07-31 11:00:00,
2013-07-31 07:30:00,75.2,74.6,30.09,WSW,248,0.0,0.0,98,0.00,,---,0.00,VWS V14.01,2013-07-31 11:30:00,
2013-07-31 08:00:00,76.3,75.7,30.09,WSW,248,0.0,0.0,98,0.00,,---,0.00,VWS V14.01,2013-07-31 12:00:00,
2013-07-31 08:30:00,77.9,77.3,30.09,WSW,248,0.0,0.0,98,0.00,,---,0.00,VWS V14.01,2013-07-31 12:30:00,
2013-07-31 09:00:00,79.0,77.8,30.11,WSW,248,0.0,0.0,96,0.00,,---,0.00,VWS V14.01,2013-07-31 13:00:00,
2013-07-31 09:30:00,81.7,79.2,30.11,East,90,0.0,2.0,92,0.00,,---,0.00,VWS V14.01,2013-07-31 13:30:00,
2013-07-31 10:00:00,83.9,78.6,30.11,East,90,0.0,2.0,84,0.00,,---,0.00,VWS V14.01,2013-07-31 14:00:00,
2013-07-31 10:30:00,85.0,78.9,30.10,ENE,68,0.0,3.0,82,0.00,,---,0.00,VWS V14.01,2013-07-31 14:30:00,
2013-07-31 11:00:00,86.2,79.3,30.10,ENE,68,0.0,2.0,80,0.00,,---,0.00,VWS V14.01,2013-07-31 15:00:00,
2013-07-31 11:30:00,86.6,79.7,30.11,ENE,68,0.0,4.0,80,0.00,,---,0.00,VWS V14.01,2013-07-31 15:30:00,
2013-07-31 12:00:00,87.7,78.8,30.10,ENE,68,1.0,3.0,75,0.00,,---,0.00,VWS V14.01,2013-07-31 16:00:00,
2013-07-31 12:30:00,84.5,80.2,30.09,ENE,68,0.0,2.0,87,0.06,,---,0.06,VWS V14.01,2013-07-31 16:30:00,
2013-07-31 13:00:00,81.9,78.7,30.09,ENE,68,0.0,0.0,90,0.06,,---,0.06,VWS V14.01,2013-07-31 17:00:00,
2013-07-31 13:30:00,83.3,79.4,30.08,West,270,0.0,3.0,88,0.06,,---,0.06,VWS V14.01,2013-07-31 17:30:00,
2013-07-31 14:00:00,83.8,78.8,30.08,WSW,248,1.0,4.0,85,0.00,,---,0.06,VWS V14.01,2013-07-31 18:00:00,
2013-07-31 14:30:00,82.8,78.5,30.07,WSW,248,1.0,3.0,87,0.00,,---,0.06,VWS V14.01,2013-07-31 18:30:00,
2013-07-31 15:00:00,81.9,78.0,30.06,SE,135,1.0,4.0,88,0.00,,---,0.06,VWS V14.01,2013-07-31 19:00:00,
2013-07-31 15:30:00,81.5,77.6,30.03,ESE,112,1.0,5.0,88,0.00,,---,0.06,VWS V14.01,2013-07-31 19:30:00,
2013-07-31 16:00:00,81.9,77.7,30.03,WSW,248,1.0,5.0,87,0.00,,---,0.06,VWS V14.01,2013-07-31 20:00:00,
2013-07-31 16:30:00,81.4,77.8,30.03,WSW,248,1.0,4.0,89,0.00,,---,0.06,VWS V14.01,2013-07-31 20:30:00,
2013-07-31 17:00:00,80.1,77.2,30.02,WSW,248,1.0,4.0,91,0.03,,---,0.09,VWS V14.01,2013-07-31 21:00:00,
2013-07-31 17:30:00,79.3,77.1,30.01,WSW,248,1.0,3.0,93,0.07,,---,0.13,VWS V14.01,2013-07-31 21:30:00,
2013-07-31 18:00:00,79.3,77.1,30.02,WSW,248,1.0,0.0,93,0.07,,---,0.13,VWS V14.01,2013-07-31 22:00:00,
2013-07-31 18:30:00,79.3,77.1,30.01,WSW,248,1.0,0.0,93,0.04,,---,0.13,VWS V14.01,2013-07-31 22:30:00,
2013-07-31 19:00:00,79.3,77.1,30.01,WSW,248,1.0,0.0,93,0.00,,---,0.13,VWS V14.01,2013-07-31 23:00:00,
2013-07-31 19:30:00,79.3,77.1,30.02,WSW,248,1.0,0.0,93,0.00,,---,0.13,VWS V14.01,2013-07-31 23:30:00,
2013-07-31 20:00:00,79.3,77.1,30.02,WSW,248,1.0,0.0,93,0.00,,---,0.13,VWS V14.01,2013-08-01 00:00:00,
2013-07-31 20:30:00,79.3,77.1,30.02,WSW,248,1.0,0.0,93,0.00,,---,0.13,VWS V14.01,2013-08-01 00:30:00,
2013-07-31 21:00:00,79.3,77.1,30.02,WSW,248,1.0,0.0,93,0.00,,---,0.13,VWS V14.01,2013-08-01 01:00:00,
2013-07-31 21:30:00,79.3,77.1,30.03,WSW,248,1.0,0.0,93,0.00,,---,0.13,VWS V14.01,2013-08-01 01:30:00,
2013-07-31 22:00:00,79.3,77.1,30.03,WSW,248,1.0,0.0,93,0.00,,---,0.13,VWS V14.01,2013-08-01 02:00:00,
2013-07-31 22:30:00,79.3,77.1,30.03,WSW,248,1.0,0.0,93,0.00,,---,0.13,VWS V14.01,2013-08-01 02:30:00,
2013-07-31 23:00:00,79.3,77.1,30.02,WSW,248,1.0,0.0,93,0.00,,---,0.13,VWS V14.01,2013-08-01 03:00:00,
2013-07-31 23:30:00,79.3,77.1,30.00,WSW,248,1.0,0.0,93,0.00,,---,0.13,VWS V14.01,2013-08-01 03:30:00,